EST,Max TemperatureF,Mean TemperatureF,Min TemperatureF,Max Dew PointF,MeanDew PointF,Min DewpointF,Max Humidity, Mean Humidity, Min Humidity, Max Sea Level PressureIn, Mean Sea Level PressureIn, Min Sea Level PressureIn, Max VisibilityMiles, Mean VisibilityMiles, Min VisibilityMiles, Max Wind SpeedMPH, Mean Wind SpeedMPH, Max Gust SpeedMPH,PrecipitationIn, CloudCover, Events, WindDirDegrees
2013-1-1,17,12,8,7,4,-2,85,72,53,30.08,30.00,29.92,10,9,3,13,8,21,0.00,6,Snow,272
2013-1-2,20,14,10,16,12,5,93,85,78,30.01,29.95,29.92,10,8,4,12,6,,0.00,8,Snow,221
2013-1-3,24,19,14,19,15,12,93,83,64,29.97,29.91,29.75,10,9,5,23,6,28,0.00,6,Snow,263
2013-1-4,35,26,17,21,15,10,79,66,48,30.07,29.84,29.72,10,10,10,20,15,29,0.00,3,,287
2013-1-5,32,23,14,25,18,12,93,82,69,30.11,29.97,29.76,10,10,10,16,5,,0.00,4,,256
2013-1-6,31,20,9,29,18,7,93,86,74,30.14,29.92,29.72,10,9,1,24,8,36,0.00,6,Snow,340
2013-1-7,33,21,10,23,15,7,92,80,64,30.13,29.91,29.72,10,10,10,25,12,32,0.00,0,,210
2013-1-8,35,25,15,32,24,14,100,82,60,30.03,29.90,29.74,10,9,5,25,9,33,0.00,2,,212
2013-1-9,51,38,25,30,25,20,84,75,33,30.37,29.90,29.68,10,9,7,23,16,34,0.00,6,Snow,249
2013-1-10,36,26,16,32,21,14,100,83,52,30.41,30.26,29.95,10,10,7,17,6,23,0.00,1,Rain-Snow,190
2013-1-11,37,35,33,37,34,30,100,95,87,29.94,29.68,29.51,10,4,0,22,14,26,0.01,8,Fog-Rain-Snow,188
2013-1-12,41,32,24,41,32,16,100,85,65,29.86,29.59,29.42,10,6,0,25,15,31,0.00,7,Fog,224
2013-1-13,24,19,13,17,13,8,80,75,68,29.95,29.88,29.84,10,9,3,12,8,22,0.00,8,Snow,314
2013-1-14,22,14,6,8,4,0,85,71,50,30.25,30.13,29.96,10,10,10,13,8,22,0.00,3,Snow,252
2013-1-15,26,16,5,12,4,0,80,70,40,30.26,30.13,29.87,10,10,10,18,9,26,0.00,1,,227
2013-1-16,28,20,13,23,13,7,86,76,63,29.99,29.72,29.50,10,9,2,22,15,32,0.00,4,Snow,234
2013-1-17,12,4,-4,7,-2,-9,85,74,56,30.22,30.14,29.99,10,10,3,18,7,24,0.00,4,Snow,302
2013-1-18,16,6,-3,14,2,-8,93,84,78,30.24,30.02,29.70,10,7,0,12,3,,0.00,5,Snow,219
2013-1-19,30,18,7,27,13,4,93,87,73,29.73,29.62,29.40,10,8,2,28,4,40,0.00,6,Snow,269
2013-1-20,9,4,-3,5,-2,-10,85,74,56,30.07,29.91,29.62,10,7,2,25,16,37,0.00,5,Snow,309
2013-1-21,0,-6,-14,-9,-14,-20,78,70,50,30.04,29.97,29.90,10,9,5,21,9,29,0.00,4,Snow,283
2013-1-22,0,-9,-18,-9,-18,-24,78,72,55,30.15,30.09,30.04,10,9,3,13,6,20,0.00,2,,258
2013-1-23,8,0,-9,3,-7,-17,85,73,61,30.26,30.07,29.93,10,8,1,21,6,32,0.00,6,Snow,294
2013-1-24,8,3,-2,3,-2,-9,84,73,52,30.54,30.40,30.28,10,7,1,17,11,23,0.00,6,Snow,298
2013-1-25,15,10,6,12,6,0,100,84,70,30.28,30.04,29.84,10,5,1,12,8,,0.00,8,Snow,210
2013-1-26,19,16,14,16,13,11,90,82,74,30.28,30.16,29.98,10,7,1,14,9,23,0.00,8,Snow,316
2013-1-27,30,24,19,28,18,13,94,79,64,30.26,30.13,29.93,10,8,1,17,12,22,0.00,7,Snow,192
2013-1-28,32,30,28,30,29,27,100,94,87,29.92,29.85,29.79,10,5,0,16,5,17,0.08,8,Snow,128
2013-1-29,35,32,30,34,31,28,100,93,87,29.84,29.62,29.45,10,8,0,21,14,26,0.00,8,Fog-Rain,210
2013-1-30,32,23,14,29,20,11,93,88,80,29.53,29.40,29.29,10,5,0,30,21,39,0.00,8,Snow,360
2013-1-31,14,10,6,11,6,1,87,80,67,29.85,29.56,29.32,10,5,1,21,15,29,0.00,8,Snow,324